Theta_e
318 318 317 316 316 321 323 322 327 327 327 323 321 322 317 320 323 318 319 318 319 320 320 321 320 320 322 327 329 330 330 330 331 333 341 339 333 333 334 334 332 331 331 329 329 331 333 334 335 335 335 333 332 332 329 324 323 321 318 318 316 314 312 310 309 309 308 307 308 315 321 323 324 322 323 327 328 327 328 328 327 325 322 319 314 312 312 311 310 309 308 308 308 309 310 310 311
318 317 316 316 319 323 322 324 331 329 327 321 318 321 317 324 325 320 322 320 319 320 321 323 322 325 324 325 327 330 334 334 332 333 338 335 333 334 333 334 332 331 330 328 329 331 333 334 334 334 334 332 332 332 327 323 323 320 318 318 315 314 314 311 309 309 309 307 307 313 319 321 321 323 326 329 329 328 329 330 328 321 316 313 311 309 308 307 307 307 307 307 308 309 310 310 311
316 316 316 319 323 324 324 326 329 327 325 320 317 319 320 325 324 321 321 318 320 320 322 322 322 324 324 329 332 332 335 337 335 334 336 335 333 333 333 334 332 331 331 330 330 332 333 333 333 334 333 332 331 329 324 322 323 319 318 318 315 314 315 313 311 310 309 308 307 311 318 319 320 325 327 326 327 329 330 330 326 318 312 309 308 308 307 307 307 307 308 308 309 309 310 311 311
315 315 316 321 325 326 329 328 332 330 321 320 318 319 323 324 323 319 318 317 320 320 320 321 321 322 327 336 334 334 337 337 336 335 335 334 334 334 333 333 331 331 332 331 331 332 332 332 332 333 332 331 330 326 323 322 322 319 318 318 315 315 314 315 313 312 310 310 308 309 316 317 320 326 324 322 325 327 327 326 321 314 310 308 307 308 308 308 308 308 308 308 309 310 311 311 310
316 317 317 320 325 326 329 326 333 333 320 323 321 319 324 323 322 318 317 319 319 320 320 320 322 325 329 333 331 334 337 337 336 334 333 334 335 334 333 333 331 331 332 331 331 331 331 332 332 332 331 330 328 324 323 323 321 319 319 318 317 314 314 315 314 314 312 311 310 308 310 312 319 323 320 322 324 324 325 322 318 316 317 312 307 308 308 308 308 308 308 309 309 310 311 311 311
319 320 319 320 323 321 327 323 322 326 320 327 325 322 324 320 319 317 317 319 319 320 320 319 321 325 329 331 332 332 333 335 336 334 334 336 336 334 334 333 331 331 331 331 331 331 332 332 331 330 330 328 326 324 323 322 320 319 319 320 319 315 314 315 314 314 314 313 312 310 308 308 316 320 316 319 321 322 322 320 322 324 324 314 307 308 307 308 308 308 309 309 310 310 311 311 312
321 323 321 323 323 320 330 326 318 323 319 322 326 324 321 317 317 316 317 318 319 319 319 320 320 324 330 332 333 332 332 334 335 334 336 338 336 335 334 333 332 331 331 332 332 332 332 332 331 328 327 325 325 324 323 322 320 319 319 321 321 319 316 315 314 314 314 314 313 313 311 308 314 318 314 316 319 319 317 321 327 326 322 313 307 308 307 308 308 309 309 309 310 310 311 311 312
322 322 322 326 328 327 332 326 321 325 318 317 321 321 318 316 316 316 317 317 318 317 318 321 321 323 326 328 332 334 333 333 335 335 337 338 336 335 334 332 333 332 332 333 332 332 331 331 330 327 326 325 325 324 323 322 321 319 320 322 323 322 318 315 315 314 313 313 313 313 313 311 312 315 314 316 320 321 318 321 325 321 316 310 307 307 308 308 308 309 309 309 310 311 312 313 313
322 321 321 324 331 331 327 321 319 320 318 318 319 318 317 317 316 316 316 316 316 315 317 320 320 322 324 327 333 334 332 334 337 336 337 337 335 334 334 333 332 332 333 333 332 332 331 331 330 328 327 326 325 324 323 322 321 320 321 325 326 324 319 316 316 315 315 314 313 313 313 312 312 312 312 312 315 318 318 318 319 315 311 308 307 308 308 308 308 308 308 310 310 312 313 314 314
322 321 319 325 334 330 320 319 320 318 317 318 318 318 317 316 316 316 317 316 316 315 317 318 319 322 325 330 334 335 334 335 336 336 336 335 335 334 333 334 333 333 332 333 333 332 332 331 331 329 328 326 325 325 323 322 321 321 323 326 327 325 320 317 317 316 316 316 315 313 313 312 312 311 311 312 314 316 317 316 314 311 309 307 307 307 307 307 307 308 308 309 310 311 312 312 312
322 319 320 327 331 325 321 322 321 319 317 316 316 318 317 317 316 316 316 316 316 317 317 318 321 323 325 329 331 335 336 336 335 335 336 335 335 334 333 335 335 333 333 333 333 332 332 331 331 330 329 326 325 325 324 322 321 322 325 327 327 324 321 319 317 317 317 317 316 315 314 313 312 311 310 310 313 314 315 313 310 309 307 306 307 306 307 307 306 306 306 306 307 308 309 310 311
322 323 330 331 325 324 326 324 320 318 317 317 316 317 317 316 316 315 316 317 317 317 316 318 322 323 326 327 329 335 338 336 335 334 336 337 335 334 334 335 336 335 333 333 333 333 332 331 330 330 330 327 326 326 324 323 321 322 325 327 327 324 323 322 318 317 318 318 317 317 315 314 312 311 309 308 309 310 309 308 308 307 306 306 306 306 305 305 305 306 306 307 308 309 309 310 311
322 325 335 328 323 327 325 322 321 320 317 318 317 316 318 316 317 316 316 318 317 317 316 317 319 322 327 327 328 334 338 337 335 335 336 337 335 334 334 335 336 336 335 333 333 333 332 331 330 330 330 328 326 326 324 323 322 322 324 325 327 326 324 324 320 317 319 319 319 318 317 315 313 310 308 307 306 306 306 307 307 306 306 305 305 305 306 308 309 310 311 311 311 311 311 312 312
321 324 331 325 323 326 324 322 320 320 320 320 317 315 317 316 317 317 317 318 316 316 316 317 317 321 328 329 330 331 335 337 336 335 336 337 337 335 334 334 335 336 337 335 334 333 332 331 331 330 330 329 327 327 325 324 323 322 324 324 325 325 325 325 322 318 317 318 318 319 318 316 313 310 308 305 305 305 305 306 305 305 305 305 306 309 311 313 314 314 314 314 313 313 312 312 312
321 321 329 327 323 322 322 322 321 323 321 320 318 316 317 316 316 316 317 319 317 316 316 318 318 320 326 330 331 325 326 333 336 335 336 337 337 335 334 335 335 336 337 335 335 334 333 332 332 331 330 329 328 327 326 325 324 323 324 324 322 323 325 325 324 321 319 318 317 318 319 318 315 312 309 306 305 304 304 305 305 306 307 309 312 314 315 316 316 316 316 315 314 313 313 313 312
321 320 328 326 320 319 319 320 322 324 319 316 317 316 316 315 315 315 317 317 317 316 316 317 317 318 320 323 323 317 317 326 334 335 335 337 336 335 335 336 336 337 337 336 336 334 333 333 332 332 330 330 329 328 327 326 325 324 324 324 323 323 324 324 324 324 322 320 319 318 318 319 318 316 313 310 308 307 306 307 307 309 311 313 315 316 317 317 317 317 317 316 315 314 313 312 312
319 322 331 324 319 319 318 321 321 322 320 316 316 316 316 315 316 316 317 317 317 316 316 316 316 319 319 319 318 316 314 321 332 335 335 337 336 335 336 336 336 337 338 336 335 334 334 333 333 332 331 331 331 330 328 327 326 325 324 324 325 324 324 324 324 324 324 322 321 320 319 319 319 319 317 314 312 310 310 311 311 312 313 315 316 317 318 319 319 319 318 317 317 315 313 312 311
319 328 333 324 324 321 317 322 319 319 320 316 315 316 316 316 316 316 316 316 316 316 316 316 317 319 319 318 318 315 314 319 329 332 334 336 336 336 336 336 336 336 337 336 336 335 334 334 333 333 332 331 331 331 329 328 328 327 326 325 325 325 324 325 324 325 324 324 323 322 321 320 319 320 319 318 316 314 313 314 315 316 316 317 317 318 319 320 320 320 320 320 319 318 316 315 313
319 327 329 328 331 319 314 318 315 316 318 315 315 316 316 316 315 315 316 314 315 316 317 317 318 317 317 317 318 316 314 317 324 329 332 334 334 334 333 334 334 333 334 334 334 334 334 334 334 333 333 333 332 332 331 330 329 328 328 327 326 325 325 325 325 325 325 325 324 323 323 322 320 320 320 320 319 318 317 317 318 318 318 318 319 319 320 320 321 321 321 321 321 320 320 318 316
318 324 328 328 326 317 314 316 314 316 316 315 314 315 315 315 315 315 315 313 314 316 317 318 318 316 316 318 319 318 316 316 320 325 329 331 331 330 329 329 328 326 327 329 331 332 333 334 334 334 333 334 333 332 332 331 331 330 329 328 328 327 326 326 325 325 325 325 325 324 324 324 323 321 320 321 320 320 319 319 319 319 319 319 319 320 320 321 321 321 321 321 321 321 320 319 318
316 325 331 323 317 316 316 315 316 316 316 315 315 315 315 315 315 315 314 314 314 314 315 317 317 315 316 318 319 319 318 316 318 323 326 328 328 327 325 324 321 320 322 325 328 329 331 332 333 333 333 334 334 333 332 332 332 331 331 330 329 328 327 327 326 326 326 326 326 325 325 325 325 323 321 321 321 321 321 321 320 321 320 320 320 320 321 321 321 321 321 321 321 321 320 319 318
316 318 321 317 314 318 317 315 317 315 315 315 314 314 315 315 315 314 314 317 317 315 315 316 315 315 315 316 317 318 319 318 317 318 322 323 324 323 323 323 322 321 322 323 324 325 327 328 331 332 332 333 334 334 333 333 332 332 332 331 331 330 329 328 328 327 327 327 326 326 326 325 326 325 322 322 322 322 322 321 321 321 321 321 321 321 321 321 321 320 321 320 321 320 320 319 318
319 316 314 315 316 317 316 315 316 315 315 315 313 315 315 315 315 315 313 316 317 315 316 316 315 316 315 316 316 317 318 318 317 316 316 318 319 319 319 320 320 320 320 319 320 322 323 324 327 330 331 331 333 334 334 334 333 333 333 333 332 331 330 330 329 329 328 328 328 327 327 326 326 326 325 324 323 323 323 322 322 322 321 322 322 322 322 322 321 321 321 321 321 320 319 319 318
320 318 314 315 316 316 316 315 316 315 315 315 315 315 315 315 316 315 314 315 316 316 317 316 316 316 316 317 316 316 316 316 316 315 315 315 315 316 316 317 317 318 318 318 319 319 320 322 323 327 330 330 331 333 333 333 333 333 333 333 333 332 331 331 330 330 330 329 329 328 328 327 327 327 327 326 325 324 324 324 323 323 322 322 322 322 323 322 322 322 322 322 321 320 320 319 319
317 317 314 315 315 316 316 315 316 316 315 315 316 315 315 315 315 315 315 316 316 316 317 316 316 316 316 317 317 316 316 315 315 316 316 315 315 315 316 316 317 318 318 317 317 317 317 319 322 324 326 327 329 331 331 332 332 332 332 332 332 332 332 331 330 330 331 330 329 329 328 328 328 327 327 327 327 326 325 325 324 324 323 323 323 323 323 323 323 323 323 323 321 320 320 320 319
314 315 315 314 314 315 315 315 315 315 316 315 316 316 315 315 315 316 316 316 316 316 316 316 316 316 317 316 316 316 315 316 315 316 316 315 315 316 316 316 316 316 316 315 315 315 315 316 319 321 322 324 326 328 329 329 329 330 330 329 330 331 330 330 331 330 331 330 330 329 329 328 328 327 327 327 327 327 327 326 325 325 324 324 323 323 323 323 323 323 323 323 322 321 320 320 319
314 314 314 314 314 314 315 315 315 315 315 315 316 317 316 314 315 318 317 316 316 316 316 316 316 316 316 317 316 317 316 316 316 315 316 316 316 315 315 315 315 315 314 315 314 314 315 315 316 318 320 323 324 325 325 326 325 325 326 328 329 329 329 330 330 330 331 330 330 330 329 328 328 327 328 328 328 328 328 327 326 325 325 324 324 324 323 323 323 323 323 323 322 321 321 320 318
315 315 315 314 313 314 314 315 314 315 315 314 316 315 314 315 316 318 316 316 317 316 316 315 316 316 316 317 316 316 317 316 316 316 316 316 316 315 316 315 315 315 315 315 314 314 314 314 315 315 317 320 322 323 322 323 323 322 324 326 327 327 328 329 329 330 330 330 330 329 329 329 328 328 328 328 328 328 328 328 327 327 326 325 325 325 324 323 323 323 323 322 322 322 321 320 318
315 316 318 317 318 318 315 314 314 315 316 315 315 314 315 317 317 317 316 316 317 316 316 316 316 316 316 317 316 316 316 316 316 316 315 316 316 316 316 316 315 315 316 315 315 315 315 314 314 315 316 317 319 320 321 321 321 321 322 323 325 327 329 328 328 329 330 330 330 329 329 329 329 328 328 328 328 328 328 328 328 328 327 326 325 325 324 324 323 324 323 323 322 322 321 320 318
316 315 318 320 322 321 314 313 315 314 316 315 313 314 319 320 315 315 316 315 316 316 316 316 316 317 316 316 316 316 316 316 316 315 316 316 315 316 316 316 316 315 316 316 315 315 315 315 315 315 315 316 316 317 318 319 319 320 320 321 323 325 327 328 327 328 329 330 330 330 329 329 328 328 328 328 328 328 328 328 328 328 327 326 325 325 325 324 324 324 324 323 323 322 322 321 318
318 313 319 324 318 321 318 312 315 315 315 315 313 315 321 322 315 314 316 315 315 315 316 316 316 316 316 316 316 316 316 316 316 316 316 316 315 316 316 316 316 316 316 315 316 316 315 316 316 316 316 316 316 316 316 317 317 318 318 320 321 323 325 326 327 327 328 329 330 330 329 328 328 328 328 328 328 328 328 328 328 327 327 326 326 325 325 325 324 324 324 323 323 323 322 321 319
322 314 320 324 315 323 324 313 313 316 315 315 314 317 321 320 315 315 316 316 315 315 316 316 316 316 316 316 316 316 316 316 316 316 316 316 316 316 316 316 316 316 316 316 316 315 316 316 316 316 316 316 316 316 316 316 317 317 318 319 320 321 323 324 324 326 327 327 328 329 329 329 328 328 328 328 328 327 327 327 327 326 326 325 324 324 324 325 324 324 324 324 323 323 323 322 320
327 317 320 324 317 321 323 314 312 314 315 315 313 316 321 319 315 316 316 315 316 315 316 316 316 317 316 316 316 316 317 317 317 317 317 317 317 317 317 317 316 316 316 316 316 316 316 315 316 316 316 316 316 316 317 317 317 318 318 318 319 320 321 322 321 323 325 325 326 327 328 329 329 328 328 328 328 328 327 326 326 326 326 325 324 323 323 323 324 324 324 324 324 323 323 323 321
323 318 319 323 319 318 321 319 314 312 315 317 315 315 321 320 314 315 316 315 315 315 316 317 316 316 317 317 317 317 317 317 318 317 318 318 318 318 318 318 317 317 316 316 316 316 316 316 316 316 316 316 316 317 318 318 318 319 319 319 319 319 319 319 318 320 321 322 323 326 327 328 328 329 328 328 328 328 328 326 325 326 326 326 325 324 323 322 323 324 324 324 324 323 323 323 322
323 320 320 320 317 317 322 321 315 314 316 317 317 316 320 320 314 314 316 316 315 316 316 316 317 317 317 317 317 317 317 317 318 317 318 318 318 318 318 318 318 317 317 316 316 316 316 316 316 316 316 316 316 318 319 319 320 320 320 321 321 321 319 318 317 317 318 318 319 322 325 327 327 328 328 328 328 328 329 328 327 326 327 326 325 325 324 323 323 323 324 324 324 323 322 322 322
326 326 328 325 320 318 320 320 315 313 317 318 319 318 318 319 316 314 316 316 314 314 316 316 317 317 317 317 317 317 317 318 318 317 318 318 318 318 318 318 317 318 317 317 316 316 316 316 316 316 316 316 316 318 319 320 320 320 320 321 321 319 318 318 316 316 316 316 316 317 320 322 323 326 327 327 327 328 329 328 327 328 328 327 326 325 324 324 323 323 324 324 324 323 322 321 322
322 323 327 326 322 319 318 319 315 311 316 320 319 319 318 319 318 313 313 315 312 311 313 314 316 316 316 317 317 317 317 317 318 317 318 318 318 318 318 318 317 318 318 317 317 316 316 316 316 316 316 316 316 317 318 318 318 318 319 319 317 316 317 317 316 316 316 315 315 315 316 317 319 323 326 327 327 327 329 329 327 328 329 329 328 326 324 324 324 324 324 324 324 323 323 322 322
322 324 326 323 320 319 316 317 318 312 314 320 319 319 318 317 317 312 310 311 311 311 312 313 315 315 316 316 316 317 317 317 317 317 317 317 318 318 317 318 317 318 318 317 318 317 317 316 316 317 316 316 316 316 316 316 315 315 316 316 316 316 316 316 316 316 316 316 316 315 315 316 317 319 322 325 326 326 327 328 328 328 330 329 328 328 326 325 324 324 325 325 324 323 323 323 322
328 326 324 322 319 318 317 318 319 315 314 320 322 320 317 316 315 312 310 310 312 312 312 313 315 314 314 315 316 316 316 316 316 317 317 317 317 317 317 317 317 318 318 317 318 317 317 316 316 316 316 316 316 316 316 315 315 315 316 316 316 317 316 316 317 317 318 318 317 316 316 316 316 317 318 320 322 323 323 326 328 330 330 329 328 328 327 327 325 325 326 325 324 323 323 322 321
329 327 322 322 321 319 320 319 318 315 314 318 321 319 317 316 319 318 311 310 313 314 314 314 315 315 315 316 315 316 315 316 316 315 316 316 316 317 317 317 317 317 318 318 317 317 317 317 317 316 316 316 316 316 316 315 316 317 318 318 318 318 318 318 318 317 318 317 317 316 316 316 316 316 316 317 319 320 322 325 327 328 328 327 327 327 328 328 327 325 326 325 324 324 324 322 321
323 332 331 325 323 321 320 319 318 316 315 318 319 320 323 324 329 331 318 310 311 311 312 314 315 315 316 317 316 316 316 316 316 316 316 316 316 317 317 317 317 317 317 317 317 318 317 317 317 317 316 316 316 316 316 316 317 318 318 319 320 320 319 318 318 317 316 316 315 315 314 315 315 315 316 317 318 318 320 322 325 326 325 324 324 325 326 329 328 324 325 326 323 324 324 324 323
318 328 330 324 326 325 321 323 323 320 318 317 316 318 329 333 330 329 320 313 313 310 308 312 315 316 316 318 317 317 317 317 317 317 317 317 316 317 317 317 317 317 317 317 317 317 318 317 317 317 316 316 316 316 316 317 317 317 318 318 319 318 318 317 316 316 315 315 315 314 315 314 315 315 315 317 318 319 319 319 321 323 325 325 326 326 325 327 327 324 326 326 322 323 325 324 324
317 318 321 322 329 327 321 322 320 322 319 314 317 319 322 324 320 318 317 317 320 315 309 311 314 316 315 316 317 317 318 317 318 318 317 317 317 317 317 317 318 317 318 317 318 318 318 318 317 317 317 316 316 316 316 316 316 316 316 317 317 316 316 315 315 315 315 315 315 315 315 314 315 315 315 316 317 318 320 319 318 319 321 324 327 330 329 328 326 324 327 326 322 323 325 324 324
318 318 320 324 327 325 325 325 320 323 320 318 327 324 316 318 316 315 315 316 320 319 316 314 312 314 315 315 316 316 317 318 318 318 318 318 318 318 318 317 317 317 318 318 318 318 318 318 318 317 317 316 316 316 316 316 315 316 316 316 316 315 316 315 315 315 315 315 315 315 314 314 314 314 314 315 315 316 318 318 318 318 321 323 324 327 327 325 324 324 326 324 323 325 325 323 323
319 318 320 322 325 328 334 333 326 324 318 321 329 319 314 324 322 317 316 315 316 319 321 316 310 314 317 316 317 316 317 318 318 318 318 318 318 317 317 317 318 318 319 319 319 319 318 318 318 317 317 316 316 316 315 315 315 315 315 315 315 315 315 315 315 315 315 315 315 314 314 314 314 314 314 314 314 315 315 316 316 316 319 322 324 325 324 323 322 323 324 323 323 325 325 323 323
316 317 320 323 326 329 332 331 326 321 317 325 329 316 313 322 325 320 315 314 318 320 321 314 310 316 318 317 317 317 317 317 317 317 317 317 317 317 317 317 317 318 318 319 319 319 319 318 318 317 317 317 316 316 315 315 315 315 315 315 315 315 315 315 315 315 315 314 314 314 314 314 314 314 314 314 314 314 314 314 314 314 314 314 318 323 325 325 326 327 326 323 322 324 325 324 322
313 322 327 325 328 330 333 333 324 315 319 328 326 318 314 315 325 326 316 314 317 317 319 315 312 317 318 318 318 316 317 317 316 317 317 317 317 317 318 318 318 318 317 318 318 317 317 317 317 316 316 316 316 316 315 315 315 315 315 315 315 315 315 315 315 315 315 315 315 315 314 314 314 314 313 313 313 313 313 313 313 313 312 311 316 321 323 324 324 324 323 320 321 325 325 324 322
317 330 330 321 325 329 331 330 321 314 323 327 321 317 315 314 323 325 318 317 315 313 317 317 315 317 318 317 318 316 317 317 316 317 316 317 317 317 319 318 318 318 318 318 318 317 317 317 317 317 316 317 316 316 316 316 316 316 316 316 316 316 316 315 316 315 315 315 315 315 314 314 314 314 314 313 313 313 313 313 312 312 311 311 315 320 324 325 324 322 321 321 324 326 325 324 323
321 325 324 317 319 322 322 326 322 320 321 319 318 318 315 315 318 317 318 319 314 310 313 315 314 316 318 317 317 316 316 316 316 316 316 317 317 318 318 318 318 318 318 319 318 318 318 317 318 318 317 317 317 317 317 317 317 317 317 317 317 317 316 316 317 316 316 316 315 315 315 315 314 314 314 314 313 313 312 312 312 311 311 312 316 319 321 324 325 324 324 324 325 324 322 323 322
319 319 320 319 320 318 320 323 319 319 320 316 315 317 317 320 317 315 317 315 312 311 311 314 315 316 318 316 315 316 314 315 316 316 316 316 317 318 318 318 318 318 318 318 317 317 317 316 317 317 317 318 318 317 318 317 318 318 317 317 317 317 317 317 317 317 316 316 315 315 315 315 315 315 314 314 313 312 312 311 311 311 310 311 317 321 322 322 324 324 323 321 321 321 321 321 320
318 319 316 318 324 323 321 322 319 320 321 317 313 316 323 324 315 313 313 311 312 313 312 314 314 316 317 315 315 315 314 316 316 316 316 316 317 317 318 318 318 318 318 317 317 316 316 316 316 316 316 317 317 317 317 318 318 317 317 317 317 317 317 317 317 316 316 316 316 316 315 315 315 315 314 314 313 312 312 311 311 310 310 309 312 316 321 323 323 324 323 319 317 320 322 321 319
317 316 314 314 321 323 318 317 320 320 319 317 315 319 326 321 314 313 310 310 311 310 311 312 311 314 316 314 315 314 315 316 315 315 315 315 316 316 317 317 317 317 317 317 317 317 317 316 316 316 316 316 317 317 317 317 318 317 317 317 317 316 316 316 316 316 316 316 316 316 316 316 315 315 314 314 313 312 312 312 311 311 310 310 309 311 317 322 324 325 324 320 319 321 320 319 320
316 315 319 318 316 322 320 314 314 315 313 317 316 320 323 316 315 317 313 312 313 310 310 310 310 313 315 314 315 314 315 316 314 315 314 315 315 315 315 316 316 317 317 317 317 316 316 316 316 316 316 317 317 317 317 317 317 317 317 317 316 316 316 316 316 316 316 316 316 316 316 316 316 316 315 315 314 313 312 311 311 311 310 310 309 309 312 317 320 321 320 319 321 322 320 321 322
319 319 321 316 312 319 323 317 319 318 315 318 316 316 320 317 317 321 315 313 315 312 310 309 310 313 313 314 314 314 316 315 314 315 314 315 315 314 315 315 316 316 316 316 316 316 317 317 317 317 317 318 318 317 317 317 317 317 316 316 316 316 316 316 316 316 316 316 316 316 316 316 316 316 316 315 315 314 313 312 311 311 311 310 309 309 309 313 316 317 317 318 320 320 320 321 322
317 318 316 316 318 321 320 316 319 319 315 320 320 314 314 315 317 319 314 314 317 314 312 312 312 313 313 314 315 315 315 314 315 315 314 315 315 315 315 314 315 316 315 315 316 316 316 317 317 317 318 318 317 317 317 317 317 316 316 316 316 316 316 316 316 316 316 316 316 316 316 316 316 316 316 316 315 314 314 313 312 311 311 310 309 309 309 312 315 317 319 320 319 319 319 320 321
313 314 312 317 323 323 320 317 317 318 316 319 319 315 316 317 317 316 313 316 316 313 316 316 312 312 314 314 314 315 315 314 315 315 314 315 315 315 315 315 315 315 315 315 314 315 315 315 316 317 317 318 318 317 317 317 317 317 316 316 316 316 316 316 316 316 316 316 316 316 316 316 316 316 316 316 315 315 314 314 312 311 311 311 310 309 308 310 313 316 317 317 317 318 319 319 320
315 317 316 317 318 317 319 318 316 318 320 320 317 314 320 321 317 315 316 317 314 312 317 317 312 312 314 313 314 315 314 315 315 315 315 315 315 315 315 315 315 315 315 315 314 314 315 314 315 315 316 317 317 317 317 317 317 317 316 316 316 316 316 316 316 316 316 316 316 316 316 316 316 316 316 316 315 315 315 314 313 312 311 310 310 309 307 307 311 314 315 315 316 317 318 319 319
316 317 317 317 317 317 319 317 315 316 317 320 318 313 317 319 314 314 316 315 312 310 312 314 312 312 313 313 314 314 314 315 315 315 315 315 315 315 315 315 315 315 315 315 314 314 314 315 315 315 315 316 316 317 317 317 317 317 317 316 316 316 316 316 316 316 316 316 316 316 316 315 316 315 315 316 315 315 315 314 313 312 311 310 310 309 307 306 309 313 314 316 317 317 318 318 318
Wind_Speed
10 8 7 5 3 3 2 1 1 2 3 2 1 1 1 2 2 4 2 1 2 3 9 12 12 12 9 11 13 11 7 2 4 3 3 9 19 20 18 19 16 15 15 16 16 14 15 14 14 12 11 10 9 8 8 8 9 10 11 10 10 11 11 12 13 13 13 13 13 13 12 13 14 14 17 19 17 15 12 11 8 8 9 9 10 11 12 11 10 10 10 10 10 11 11 11 11
9 7 6 4 2 2 2 3 2 2 4 3 1 2 1 3 3 5 4 3 4 7 14 18 19 19 17 15 11 8 8 4 3 7 12 19 23 19 17 18 16 15 15 16 16 15 15 14 14 12 11 10 9 8 7 7 8 9 10 9 9 10 11 12 12 13 13 13 13 13 12 13 14 14 17 18 16 15 11 9 7 8 10 9 10 11 12 11 11 11 11 11 11 12 12 12 11
7 6 4 2 1 1 2 3 2 2 4 2 3 2 0 3 4 5 5 7 11 16 18 17 15 12 11 8 6 4 4 5 9 15 20 22 22 20 18 17 16 15 14 15 15 15 14 14 13 12 11 10 9 7 6 6 7 8 8 9 9 10 11 12 12 12 12 13 13 13 12 13 14 14 16 16 16 15 12 10 9 9 10 10 11 13 13 13 12 12 13 12 12 12 12 12 12
7 5 2 1 1 1 3 3 2 4 4 3 2 3 1 5 6 5 5 9 13 14 12 10 9 5 7 7 7 7 6 9 16 19 21 21 19 20 20 18 17 15 14 15 15 15 14 13 12 12 11 10 9 7 6 6 7 8 7 8 9 10 11 11 12 12 12 12 12 12 12 13 14 13 14 16 17 15 11 10 10 10 10 11 13 14 14 14 13 13 13 13 12 12 12 12 11
6 3 1 1 1 1 2 3 2 5 4 4 3 4 4 5 6 5 5 8 9 8 9 9 6 6 10 9 5 4 8 13 17 18 20 20 17 20 20 19 19 16 15 14 14 14 13 12 12 11 10 10 9 7 6 6 6 7 7 7 9 10 10 11 11 11 11 11 11 11 11 12 12 12 13 16 15 13 12 11 11 12 12 13 15 15 14 14 14 13 14 13 13 12 12 12 11
3 2 1 2 2 0 1 3 4 2 4 5 4 4 5 6 7 8 8 9 8 9 10 9 8 9 9 7 5 9 13 14 16 18 20 20 18 19 20 19 19 17 15 15 14 13 12 11 11 11 10 9 8 7 7 6 6 6 6 7 9 10 11 10 10 11 11 11 10 10 10 10 11 11 11 13 12 11 13 15 14 13 13 14 16 15 14 14 14 14 14 13 13 12 12 11 11
2 1 1 2 2 1 2 4 4 2 2 5 6 5 7 8 10 11 8 7 7 8 9 9 13 11 6 6 7 10 11 12 18 19 19 19 18 18 19 20 19 17 15 15 14 13 12 11 10 11 11 10 9 8 7 7 6 6 6 8 9 9 11 10 10 10 10 10 10 9 9 9 9 10 9 10 11 11 14 17 15 12 12 14 16 15 14 14 13 14 14 13 13 12 11 10 9
1 1 1 3 2 3 4 3 1 2 1 2 5 7 11 14 15 11 6 5 4 5 9 11 12 8 4 6 6 8 11 14 18 18 18 18 18 19 19 20 19 18 16 15 14 13 13 12 11 10 11 11 9 9 8 7 6 6 7 8 9 9 10 10 9 9 9 10 10 9 9 8 8 8 9 9 10 10 12 14 12 11 12 14 16 14 14 14 13 14 13 12 12 11 10 9 8
1 1 1 2 1 3 3 3 1 2 0 2 4 7 15 19 16 9 5 4 6 8 11 12 9 5 6 7 7 11 13 15 16 16 17 17 19 20 19 20 19 19 17 16 15 14 13 12 12 11 11 11 10 9 8 8 7 7 8 8 9 8 8 9 9 9 9 9 9 9 8 8 8 8 8 8 8 9 10 10 10 11 13 15 15 14 14 13 13 14 13 12 11 10 10 9 7
2 1 1 2 2 4 3 1 0 1 2 3 4 10 18 18 13 10 9 6 9 10 9 10 7 9 10 9 10 13 15 16 17 16 16 16 18 20 19 18 17 18 17 16 15 14 13 12 12 11 11 12 11 10 9 8 7 8 8 9 8 7 7 8 8 8 9 9 9 8 8 8 7 7 8 8 8 8 9 10 11 13 14 14 14 13 12 12 12 13 12 11 10 9 8 8 7
1 0 1 3 3 3 3 2 2 1 1 1 3 12 17 16 12 10 9 8 10 10 10 8 8 13 12 8 9 14 17 17 16 16 17 16 17 19 19 17 16 15 15 15 14 14 13 13 13 11 11 11 10 10 9 9 8 8 9 9 7 6 6 7 7 8 8 8 8 8 8 7 7 8 8 8 8 9 10 10 12 13 14 14 13 13 12 12 12 12 12 10 9 8 7 7 7
0 2 3 4 2 3 4 4 3 1 2 0 3 10 13 15 12 8 9 9 9 9 11 7 10 15 8 3 9 16 20 18 16 16 18 18 17 19 18 17 16 14 13 14 14 14 13 14 13 12 12 11 10 10 10 9 8 8 9 8 7 6 5 6 7 7 8 8 8 8 7 7 7 8 8 8 8 8 10 11 12 13 14 14 13 13 13 13 13 12 11 10 9 8 7 6 6
1 1 5 2 2 4 5 4 3 1 3 3 5 7 12 14 12 14 13 10 9 8 7 7 14 13 4 4 11 18 22 21 19 18 21 20 18 19 18 17 15 14 13 14 14 14 14 14 14 13 13 12 11 10 10 10 8 8 8 8 7 6 6 5 6 7 7 8 7 7 7 7 7 8 8 8 7 8 10 11 12 13 15 15 14 14 13 13 12 11 10 9 8 7 6 5 5
1 2 4 2 0 3 5 4 3 3 2 6 4 7 11 10 11 17 15 8 7 9 8 9 14 9 4 7 10 20 24 23 22 19 23 22 21 20 18 17 16 15 14 14 15 15 16 15 14 14 14 13 12 11 11 10 9 8 7 7 6 6 6 6 6 6 6 7 7 7 6 6 7 7 8 8 8 9 11 12 13 14 16 15 15 14 13 12 12 10 9 8 7 6 5 4 4
2 2 3 3 2 1 4 2 4 6 3 5 6 8 8 5 7 15 16 9 6 9 10 9 11 5 6 9 8 20 25 25 25 21 24 24 23 21 19 18 17 17 16 16 15 15 16 16 16 15 14 14 12 12 12 11 9 9 7 6 5 4 6 6 5 5 5 5 6 6 6 6 6 7 7 7 7 8 10 11 12 14 15 15 14 13 13 12 11 10 9 8 7 6 5 5 4
2 1 4 3 1 1 2 2 5 4 4 5 8 9 6 4 7 11 11 10 8 10 8 7 8 3 8 9 5 15 23 25 26 22 26 27 25 23 20 19 18 18 17 17 17 16 17 17 17 16 16 15 14 14 13 12 11 10 9 7 6 5 5 5 4 4 4 4 4 5 5 5 6 6 7 7 8 8 8 9 10 11 12 12 12 12 11 10 10 9 8 7 6 5 5 4 5
2 1 4 2 0 1 2 4 4 4 4 5 9 11 6 3 7 9 8 11 13 10 7 7 8 6 7 7 6 15 21 25 27 25 29 29 27 24 23 22 21 21 19 19 19 18 18 18 18 17 17 16 15 15 15 14 13 12 12 10 8 7 7 6 6 5 4 3 3 4 4 4 5 6 6 7 8 8 8 8 8 9 9 10 10 9 8 7 7 6 5 5 4 4 3 3 4
2 2 3 1 2 1 3 6 5 4 5 8 12 13 9 5 7 11 9 10 12 8 7 9 9 10 8 7 10 15 21 25 28 29 32 33 30 27 26 25 24 24 23 22 21 20 20 19 19 18 18 17 17 16 16 15 14 14 13 12 10 9 9 8 7 7 6 5 4 3 3 4 5 5 6 6 7 8 8 8 8 8 8 8 8 7 7 5 4 3 2 2 3 3 2 1 2
2 3 3 3 5 2 2 4 6 3 6 13 13 13 10 8 11 13 7 6 11 8 5 7 9 11 9 10 12 15 21 25 27 30 33 34 32 30 28 27 27 25 25 24 23 22 21 21 20 20 19 19 19 18 17 16 16 15 14 13 12 11 11 10 9 8 8 7 5 4 3 4 5 5 6 6 7 7 8 8 8 8 8 8 7 7 6 5 3 1 1 1 2 3 3 3 1
2 4 3 4 6 3 1 3 4 5 10 15 12 12 9 8 12 11 7 7 7 7 7 8 10 13 12 14 14 15 20 23 26 29 31 32 32 30 28 27 26 24 24 23 23 23 23 22 21 21 20 20 20 19 18 18 17 16 15 15 13 13 13 12 11 10 9 8 7 7 6 5 5 6 7 7 8 8 8 9 9 9 9 8 8 7 6 5 3 2 1 0 1 2 3 3 3
1 4 3 5 5 2 2 4 1 5 13 15 13 11 6 7 12 10 9 8 3 10 14 11 11 15 16 17 17 16 18 21 25 28 30 31 30 29 27 25 23 21 22 22 22 23 23 23 22 21 21 21 21 20 20 19 19 18 17 16 15 15 15 14 13 12 11 10 9 9 8 7 7 8 8 8 8 8 8 8 9 9 9 8 8 7 6 5 4 3 3 2 1 1 1 1 1
3 1 2 4 6 2 1 3 3 7 11 12 12 10 6 8 10 12 12 8 5 12 16 13 12 14 15 17 19 19 19 20 24 27 29 30 29 28 27 26 25 23 23 23 23 22 22 23 23 22 22 22 22 21 21 20 20 19 19 18 17 17 16 16 15 14 13 12 11 10 10 10 9 9 9 9 8 8 8 8 8 8 9 8 8 8 7 6 6 5 5 4 4 3 3 2 3
3 1 1 3 5 4 4 4 4 8 11 11 11 9 9 9 7 11 14 11 8 8 10 11 12 13 14 16 19 20 20 20 22 23 26 27 27 27 26 26 26 25 24 24 23 23 22 23 23 24 23 23 23 22 22 22 22 21 20 19 19 18 16 17 17 16 15 14 13 12 12 12 10 10 10 9 9 8 8 8 9 9 9 9 9 8 7 7 6 6 6 6 5 5 4 3 3
4 2 2 2 3 5 6 5 5 8 11 11 10 9 10 10 5 7 13 14 9 6 5 7 10 14 16 18 19 20 19 19 18 18 20 22 22 21 23 24 24 25 25 24 24 24 24 23 24 25 25 24 24 23 23 24 23 23 22 21 20 19 18 18 18 18 18 17 15 14 14 13 13 13 12 10 9 9 9 9 9 10 10 10 10 9 9 8 7 8 7 7 6 5 5 4 5
3 3 4 3 4 5 4 5 6 6 9 8 8 8 8 8 4 5 12 15 12 10 8 6 7 12 18 20 20 20 20 19 17 18 19 20 20 21 23 24 25 27 27 25 24 24 24 24 25 26 26 26 25 25 25 25 25 25 24 23 22 22 21 19 19 19 20 19 18 17 16 15 15 15 14 12 11 10 10 10 10 11 11 11 11 11 10 9 9 9 8 7 7 6 6 5 6
3 7 8 6 4 5 5 5 6 5 6 5 5 3 3 5 3 7 15 15 14 14 12 10 9 10 15 18 20 20 20 20 19 18 19 19 22 25 25 25 26 27 26 25 25 25 24 24 26 27 27 27 26 27 27 27 27 27 26 25 24 24 23 21 20 21 22 22 21 19 18 17 16 16 15 15 14 12 12 12 11 12 12 13 12 12 11 11 10 10 9 8 7 7 6 7 7
7 11 9 7 5 5 4 4 5 4 4 4 5 2 1 2 1 6 12 10 13 17 16 15 13 12 13 16 18 19 20 20 18 18 18 20 23 25 25 25 26 26 26 27 27 26 25 25 26 26 28 28 28 28 28 28 28 27 27 26 26 26 24 23 22 22 23 24 23 21 20 19 18 17 17 17 16 15 14 13 13 13 13 14 14 13 13 12 12 12 11 9 8 8 7 7 8
13 14 8 5 3 2 2 4 6 4 2 3 4 0 3 1 2 11 13 6 10 17 18 17 16 15 15 16 17 19 20 19 19 20 20 21 21 21 23 24 24 24 24 25 25 26 27 26 26 26 27 29 30 30 30 29 29 28 28 28 28 27 25 25 25 24 25 25 24 23 22 20 19 19 19 19 18 17 16 15 15 15 14 15 15 15 15 14 14 14 13 12 11 9 8 8 8
12 10 5 5 6 2 2 3 5 4 2 3 3 1 4 2 8 15 10 5 8 13 19 20 19 18 16 17 18 20 21 20 22 23 21 20 19 20 21 21 21 22 22 21 22 25 26 27 27 27 27 28 30 31 31 30 30 29 29 29 29 28 28 28 27 26 26 26 25 25 24 22 21 21 21 21 21 20 18 18 17 17 16 16 16 16 16 17 17 16 15 14 13 11 9 8 9
7 4 4 3 7 4 3 2 3 3 2 4 4 1 6 6 15 18 9 8 10 13 19 21 21 20 19 18 19 21 21 22 24 24 23 22 21 21 21 20 21 22 21 21 23 24 24 25 27 27 27 28 29 30 31 30 30 30 29 30 30 30 30 30 30 29 28 27 27 27 26 25 24 23 23 22 22 21 20 20 20 19 18 18 18 17 18 19 19 18 17 16 15 13 11 9 10
3 1 3 3 2 3 5 1 5 4 2 4 4 1 6 8 13 12 11 15 14 16 19 20 21 21 20 20 21 22 22 23 24 24 24 23 23 23 23 22 22 23 22 23 24 22 22 23 25 27 27 28 29 30 30 30 29 29 29 30 30 30 30 31 31 31 30 29 28 29 28 28 27 26 25 24 23 23 22 22 22 21 20 20 20 19 19 20 20 20 19 18 17 15 14 12 12
3 2 1 3 2 4 7 1 7 5 2 3 4 1 6 9 9 6 4 9 12 16 18 18 20 20 21 21 21 22 22 23 24 24 24 24 24 25 24 23 24 24 25 25 24 24 24 23 24 25 26 27 28 29 30 30 30 29 29 29 30 30 31 31 32 32 32 31 30 30 30 30 29 28 27 26 26 26 24 23 23 23 23 22 22 22 21 21 22 22 20 19 19 18 18 16 14
4 3 3 2 2 3 5 1 4 3 2 1 1 3 3 4 5 3 6 1 8 14 17 17 19 20 21 21 22 22 22 23 24 25 24 23 23 24 23 23 24 25 25 25 25 26 25 25 25 25 25 26 27 28 29 30 30 30 29 29 29 30 31 31 31 32 32 32 32 32 32 32 31 30 29 29 28 29 28 25 24 24 25 25 25 24 23 21 21 24 23 21 21 20 20 20 18
3 2 1 3 3 2 2 2 2 1 2 2 0 3 6 6 8 8 5 2 6 12 15 16 17 19 20 21 22 23 23 24 25 25 23 22 22 21 21 21 22 24 25 26 26 26 26 26 26 26 25 25 26 27 28 29 30 30 30 30 30 30 30 30 31 31 32 33 33 33 33 33 33 32 31 31 30 31 31 28 26 26 26 27 27 26 24 22 20 23 25 24 24 23 22 23 21
4 2 2 2 2 2 3 3 2 2 1 2 1 3 9 10 13 18 17 12 12 15 18 19 20 22 23 24 26 26 27 28 28 27 24 23 22 21 20 20 21 22 24 26 27 27 27 28 28 27 27 26 26 27 27 28 29 30 31 31 31 32 32 31 31 31 31 32 32 33 34 35 35 35 34 33 32 32 32 31 29 28 28 29 28 27 26 25 23 22 25 26 27 27 26 25 24
8 6 5 4 3 3 4 3 3 1 1 4 5 5 8 10 11 16 23 20 15 18 21 25 27 28 29 29 30 30 30 32 30 27 25 25 24 23 22 21 21 21 22 25 27 28 29 29 29 29 29 28 28 29 28 29 29 31 32 33 34 34 34 33 32 32 32 32 32 32 33 35 35 35 36 35 34 33 33 33 32 32 31 31 31 30 29 29 27 24 24 26 29 30 29 28 27
7 6 5 3 3 2 3 3 4 1 3 5 5 5 8 10 10 15 23 20 14 18 22 26 29 30 32 32 32 32 32 33 30 28 27 26 26 25 25 24 23 23 23 25 27 29 29 29 30 29 29 29 30 31 30 30 30 31 32 33 33 34 34 34 34 33 33 33 32 32 32 33 33 34 35 35 34 34 35 35 34 34 34 34 34 34 31 30 29 27 26 26 29 31 32 32 31
5 6 5 2 2 2 2 3 4 1 2 4 3 4 9 10 10 15 20 14 14 21 22 26 31 31 33 33 33 34 32 32 31 30 29 27 27 27 27 27 26 26 25 25 26 27 28 30 30 29 29 30 31 31 31 31 31 31 32 32 32 33 33 34 34 33 33 33 33 33 33 33 33 34 35 35 36 36 36 36 35 36 37 35 36 36 34 32 31 32 31 29 30 32 34 35 36
5 4 5 2 1 2 3 4 5 3 1 4 5 6 10 11 9 15 19 15 18 24 23 26 29 30 32 34 34 34 33 34 32 31 30 29 28 28 28 28 28 28 26 26 26 26 28 30 30 30 30 31 31 31 31 31 31 31 32 33 33 34 34 34 34 33 33 34 34 33 34 34 34 34 34 35 36 36 36 35 36 38 39 38 37 39 39 36 35 38 38 32 30 33 35 38 39
4 4 4 2 2 1 1 4 4 3 2 2 4 6 10 9 6 11 17 17 18 21 20 23 25 27 30 32 33 34 34 33 31 30 28 27 28 28 28 28 27 28 27 28 28 27 28 29 29 29 30 30 30 31 31 31 32 33 34 35 35 36 36 35 35 36 36 36 36 35 35 35 35 35 34 34 35 36 36 36 37 39 41 41 40 40 42 41 37 39 42 36 31 35 38 39 40
1 3 5 3 3 3 3 2 2 3 4 3 4 6 7 5 5 7 8 7 11 13 12 15 18 20 23 25 27 28 28 28 26 23 22 22 23 24 24 24 25 26 27 27 27 27 27 26 27 28 29 29 29 30 30 31 32 34 36 37 37 38 38 38 38 38 38 38 37 37 36 36 36 35 35 35 36 36 36 38 40 41 42 42 41 41 43 45 40 40 45 41 35 39 40 38 40
3 2 5 6 6 6 2 2 4 4 4 4 5 4 6 5 5 7 6 5 7 8 8 11 12 12 16 20 21 22 22 23 22 20 19 19 19 18 19 20 22 23 24 24 24 25 25 24 25 27 28 29 29 30 30 31 33 34 36 38 39 39 40 40 39 38 38 38 37 37 37 36 36 36 36 36 37 38 38 37 39 40 42 42 43 43 42 44 44 44 46 43 42 45 41 37 41
1 4 5 6 7 7 4 2 4 1 3 3 4 4 5 7 5 8 6 7 9 9 8 12 17 18 19 21 21 20 19 19 19 18 17 17 16 16 17 18 19 19 19 20 22 23 24 24 24 25 27 28 29 30 31 32 33 34 36 37 38 39 40 39 38 37 37 38 38 38 38 37 37 37 38 38 38 39 40 40 40 40 41 42 44 46 45 45 46 45 46 45 46 48 43 39 43
3 4 6 7 7 7 5 5 3 2 3 4 4 4 2 6 6 6 5 6 9 10 9 14 20 21 19 17 17 17 17 15 14 13 13 13 14 14 15 15 16 16 16 18 20 21 22 23 23 23 25 27 28 30 31 33 34 35 36 37 38 38 39 38 37 37 38 38 39 39 39 38 38 38 39 39 39 40 40 41 42 41 42 43 44 47 49 51 50 47 48 47 46 48 46 43 43
4 4 7 6 6 6 5 6 3 1 2 4 5 2 2 6 7 5 5 5 8 10 9 12 16 17 16 11 6 6 8 8 8 8 8 9 10 11 11 11 12 13 15 16 18 19 20 22 22 23 25 26 27 29 30 32 33 34 35 36 37 37 37 37 36 37 37 38 38 38 39 39 39 39 39 40 40 40 41 41 43 43 43 44 46 50 50 50 49 47 47 47 48 52 50 42 41
3 5 7 5 6 6 5 5 3 3 2 5 6 2 2 5 7 4 3 3 6 8 8 9 11 13 13 12 11 8 6 5 5 5 4 6 7 8 8 7 8 10 12 14 16 18 20 21 22 23 24 25 26 27 28 29 30 31 32 33 34 33 34 34 35 35 36 36 37 37 38 38 39 39 39 40 40 41 41 41 42 43 43 44 46 49 48 48 50 50 47 47 52 53 46 39 42
8 7 7 6 6 5 4 3 4 3 3 6 7 3 2 4 7 4 3 4 5 3 5 7 10 13 13 15 15 11 8 7 5 6 6 7 8 8 6 4 5 7 9 11 13 15 16 18 19 21 22 23 25 26 26 27 27 28 28 28 29 28 29 30 30 31 32 32 33 33 34 35 36 38 38 39 40 40 41 41 41 42 42 42 44 47 48 48 49 50 48 48 52 51 45 45 48
7 5 5 4 4 5 4 4 4 1 5 6 5 2 3 4 6 4 5 6 4 3 3 7 9 10 10 12 11 8 7 6 6 6 7 8 9 9 5 3 3 4 5 6 7 9 10 12 14 16 18 19 21 23 24 24 24 24 23 23 24 23 24 25 26 26 27 28 28 28 30 31 32 34 35 37 38 39 40 40 40 40 41 41 43 46 50 50 50 51 50 49 51 49 46 49 49
6 5 6 4 2 3 3 3 1 3 6 4 3 2 3 6 8 8 11 10 5 6 5 6 7 5 8 9 8 8 9 9 9 9 9 9 9 9 5 3 3 3 3 4 5 6 8 10 12 15 16 16 18 20 20 21 21 21 20 20 20 20 21 21 21 21 22 23 24 25 26 27 28 30 31 32 33 34 36 37 38 39 40 41 42 44 48 50 51 51 50 49 50 48 47 47 46
4 5 5 4 3 2 3 3 2 4 5 3 3 2 3 4 5 8 13 11 5 5 6 6 4 2 5 7 8 11 12 13 13 12 11 9 8 7 5 5 5 5 5 6 6 7 9 12 14 17 17 17 18 19 19 19 19 19 19 18 18 18 18 18 18 18 19 20 21 22 23 24 25 26 27 27 28 29 30 32 34 36 37 40 43 45 46 48 50 52 50 48 51 54 52 45 44
4 4 6 5 5 5 4 4 3 4 3 3 3 2 3 2 1 5 10 12 11 6 6 6 3 1 1 4 9 12 12 13 13 14 14 11 9 7 6 8 8 8 9 10 11 12 14 17 19 21 20 19 19 20 19 18 18 18 18 17 17 16 16 16 16 16 17 18 18 19 19 20 21 22 23 24 25 26 27 28 30 32 33 36 42 46 46 47 52 55 50 47 50 53 50 45 46
2 3 5 3 5 5 2 3 5 3 1 3 2 3 4 3 5 9 8 10 11 6 4 6 5 4 3 5 10 13 11 12 14 16 17 16 14 11 9 9 11 12 14 16 17 18 20 22 22 23 21 19 19 20 19 18 18 18 18 17 16 15 15 15 14 14 14 15 16 16 16 17 19 20 21 22 23 24 25 25 27 29 30 32 37 43 46 46 48 50 47 48 50 48 46 48 49
2 2 3 5 4 7 4 2 1 3 2 4 2 4 5 3 7 9 5 5 8 3 3 5 1 3 3 6 12 13 11 12 15 16 17 17 17 18 17 15 13 13 14 16 18 19 21 21 20 20 20 20 19 20 19 19 19 19 18 17 16 15 15 14 13 12 13 14 15 15 15 16 17 18 19 21 23 24 24 25 25 26 29 30 32 37 44 47 47 48 49 50 50 48 48 50 50
5 3 6 3 2 4 4 2 3 3 3 5 2 5 5 2 4 7 6 3 7 4 5 6 7 6 5 9 13 13 11 12 14 16 17 18 19 20 21 20 17 13 13 14 15 17 18 18 19 20 21 21 20 20 20 20 21 20 19 18 17 16 15 15 14 13 14 14 14 15 15 16 16 17 19 21 22 24 25 25 25 26 27 29 31 32 38 44 46 48 49 48 46 45 47 50 52
5 4 4 4 2 1 2 2 2 1 2 5 4 4 5 4 5 5 3 4 6 3 5 5 6 8 8 11 14 13 12 13 16 17 17 18 19 21 22 22 19 15 13 13 13 14 16 18 20 21 22 22 22 21 21 22 23 22 21 20 19 18 17 17 16 16 17 16 15 16 16 17 17 18 20 21 22 24 25 26 26 27 27 28 30 31 35 40 44 46 47 47 46 44 46 49 51
3 3 3 3 2 4 3 3 3 3 3 3 4 4 4 6 6 7 7 9 6 2 7 5 3 7 9 13 14 13 14 15 17 17 17 18 18 19 21 22 20 16 13 13 13 14 14 16 18 20 23 24 24 23 23 24 24 23 23 21 20 20 19 19 20 20 19 18 18 18 19 19 19 19 20 22 23 23 24 26 27 28 28 29 29 30 32 37 42 45 46 47 46 45 46 48 50
3 3 4 2 1 2 2 1 3 4 4 2 3 5 6 5 4 8 9 8 5 6 8 5 2 7 10 13 14 14 15 16 17 18 18 19 17 17 20 22 22 19 16 13 13 14 16 17 18 19 21 24 26 26 25 26 26 25 24 23 22 21 21 22 22 22 21 20 20 21 22 22 22 21 22 23 24 24 25 26 28 28 28 29 30 31 31 34 39 42 44 44 43 42 44 46 47
6 6 7 6 5 4 3 3 1 2 3 4 3 5 8 5 4 6 6 5 6 8 9 5 4 8 10 14 15 14 14 15 17 17 18 20 19 19 21 24 24 23 21 17 13 14 16 19 21 21 21 23 26 28 29 28 28 27 27 25 24 24 24 24 25 24 24 23 23 23 24 25 25 24 24 24 25 26 26 27 28 29 29 29 31 31 31 32 36 39 40 41 41 41 43 45 44
Wind_Direction
244 248 262 272 277 242 247 76 75 349 75 96 344 78 192 224 162 116 133 107 71 49 75 83 79 85 99 107 115 105 78 119 182 159 168 149 145 155 152 151 156 159 160 158 160 156 151 145 142 143 143 139 126 116 103 83 62 51 47 49 61 73 79 86 87 84 83 81 85 92 96 98 98 97 98 99 101 105 116 129 136 146 147 131 122 121 117 116 116 117 117 117 118 117 114 111 107
243 248 267 269 290 225 203 79 86 339 54 82 314 146 215 336 70 138 183 154 142 128 94 88 89 91 99 103 102 86 51 37 187 153 134 140 148 158 153 149 154 159 159 155 157 156 154 148 146 148 145 137 127 119 100 81 62 51 48 51 66 77 83 87 88 87 85 83 85 91 95 97 100 99 100 106 109 112 117 122 125 132 135 131 126 120 115 115 118 116 115 116 118 118 117 114 111
244 251 270 249 258 164 137 71 91 80 76 119 263 260 143 67 124 190 195 143 131 123 106 97 93 93 103 92 62 80 77 87 139 140 136 147 154 155 153 149 153 160 158 155 156 157 156 152 151 149 145 138 132 124 104 86 67 56 53 58 73 79 82 87 88 88 86 84 85 91 96 95 100 101 107 121 130 129 123 113 111 121 126 126 123 117 115 117 119 118 117 119 120 121 120 117 116
249 247 253 218 225 60 81 65 125 116 120 166 215 270 235 142 165 204 164 133 134 129 121 106 78 80 110 103 90 95 115 134 143 145 146 154 157 152 151 151 157 158 155 156 157 159 160 157 156 153 148 142 138 130 115 96 74 64 60 68 80 81 80 85 88 90 89 87 86 90 95 96 100 103 112 129 137 132 126 119 113 113 117 121 121 117 119 121 121 122 122 124 126 125 123 121 121
248 231 198 184 15 19 86 76 102 105 165 177 154 250 241 177 170 190 147 131 143 135 129 115 84 93 99 103 112 112 141 148 152 155 151 153 157 154 150 155 161 156 153 155 157 161 163 161 157 156 154 148 143 136 124 103 83 73 71 78 86 85 80 82 87 91 92 91 90 90 95 98 103 105 112 124 131 129 125 118 109 105 110 120 123 122 123 124 125 127 128 129 130 129 128 126 125
228 184 147 78 67 187 101 86 101 110 211 166 145 222 217 194 170 158 134 119 123 124 128 124 126 122 93 86 108 132 145 151 160 162 155 154 158 156 152 160 165 159 156 155 158 163 164 163 159 158 159 156 152 142 130 111 93 85 85 89 92 90 83 81 84 88 91 93 93 92 95 99 104 106 110 119 125 127 123 115 109 109 115 123 126 127 128 128 130 131 132 131 131 131 130 129 128
228 200 137 85 75 42 100 123 131 147 221 166 161 178 190 197 166 146 131 118 108 116 122 127 136 124 94 104 115 135 148 159 164 164 159 157 159 159 158 164 168 165 163 159 161 164 167 166 161 161 161 162 160 149 134 120 107 100 100 99 101 94 84 81 81 84 86 88 91 92 94 97 102 103 104 112 118 123 126 120 117 123 126 126 128 132 131 132 133 132 133 133 133 133 131 131 127
220 151 110 101 51 30 101 114 149 174 71 165 167 165 179 178 162 150 147 146 132 130 123 136 143 113 119 147 131 152 158 163 166 167 164 162 162 163 165 168 169 169 167 165 165 167 170 168 162 163 163 163 161 152 140 131 122 114 111 109 110 99 82 80 82 83 83 83 86 87 90 95 97 97 96 101 108 116 126 127 128 135 132 128 132 135 134 135 135 133 136 136 135 136 132 131 124
179 155 113 101 82 34 80 64 20 193 57 153 154 171 176 168 163 153 143 140 138 140 133 151 159 124 159 152 127 155 161 165 169 170 169 167 166 166 170 171 171 170 168 168 169 170 170 168 163 164 165 165 163 155 149 143 136 127 121 119 118 106 85 83 88 88 88 85 84 85 87 92 93 91 92 99 104 108 117 125 130 131 130 132 136 137 137 137 136 135 137 139 138 138 136 132 127
206 171 158 89 82 56 68 91 102 137 182 186 177 177 172 170 167 145 134 134 139 138 136 153 156 140 152 138 129 155 164 170 172 175 175 170 170 172 171 170 174 174 170 170 171 171 172 171 166 166 169 167 164 159 156 153 146 136 127 124 123 113 93 89 96 96 97 92 90 90 90 94 94 92 92 99 103 106 109 114 120 124 130 135 138 137 136 136 134 134 137 140 141 140 139 136 134
229 312 128 77 70 97 151 183 231 260 193 231 202 180 171 166 154 135 130 136 149 140 138 143 137 137 133 132 145 159 166 174 179 178 174 173 177 177 172 168 175 179 174 173 172 173 175 175 173 172 175 172 168 164 163 161 154 142 129 130 131 122 105 98 102 105 105 99 97 97 98 101 100 99 98 103 104 108 113 115 120 126 133 137 139 137 135 135 133 135 137 138 137 139 140 138 134
81 320 79 88 115 159 174 154 181 264 331 310 189 190 176 161 145 142 142 145 162 148 151 155 149 142 114 133 157 160 167 173 180 178 172 177 184 179 174 168 172 180 180 179 177 178 179 180 179 177 181 181 176 172 172 167 159 147 135 138 140 131 120 108 108 112 111 105 102 102 104 106 105 105 106 112 113 114 119 122 127 131 135 138 140 139 138 137 135 135 136 136 135 137 142 140 133
144 195 88 95 185 136 137 134 167 56 348 236 192 183 171 164 157 161 154 148 161 149 155 158 159 152 106 146 155 164 171 173 178 178 175 180 187 181 176 171 174 181 181 183 183 182 182 184 185 182 184 186 183 180 177 173 165 157 147 147 148 140 129 117 112 113 115 109 103 103 104 108 108 110 112 119 122 122 123 127 132 134 137 139 139 139 138 137 135 136 136 136 136 140 147 147 138
188 217 104 116 113 113 138 119 141 129 252 249 209 175 164 164 167 166 152 144 169 150 140 148 162 162 128 147 166 177 176 176 180 180 179 181 188 186 178 176 181 182 181 186 188 188 186 188 190 187 189 189 188 185 182 180 173 169 163 156 158 149 138 129 116 107 109 108 103 101 100 104 110 114 116 122 126 127 129 132 134 135 138 139 139 139 137 136 135 137 137 138 140 146 153 155 151
220 287 99 106 30 88 163 142 141 146 217 230 192 176 153 135 161 170 157 150 179 152 139 146 164 179 170 168 189 185 175 177 181 180 181 183 189 189 183 183 186 187 187 188 191 194 191 192 194 192 194 194 193 191 189 186 183 183 182 177 176 161 150 145 132 113 104 102 101 100 99 102 108 114 117 121 126 128 132 136 135 137 140 138 139 139 137 137 138 141 142 143 145 150 161 167 170
211 331 80 75 6 144 174 158 127 133 222 210 181 170 139 116 146 164 165 161 159 153 156 156 166 185 178 173 173 173 168 173 178 179 181 184 190 189 188 190 193 195 194 193 194 197 196 197 197 196 197 197 197 196 195 193 191 191 193 197 196 182 171 167 163 149 128 113 105 104 105 108 111 117 123 126 128 130 134 137 137 139 141 141 141 141 139 140 142 144 144 145 146 153 168 177 184
211 34 68 61 186 216 183 162 154 162 209 212 185 172 148 126 146 147 156 163 152 152 172 163 165 160 162 165 142 159 164 168 174 178 180 184 190 189 190 193 197 200 199 198 197 198 199 200 201 200 200 200 200 200 200 199 197 198 199 203 202 198 191 186 185 180 169 153 134 121 117 123 125 127 132 137 139 141 144 144 144 145 145 146 146 145 145 146 145 141 136 135 135 143 159 175 188
202 106 94 155 195 214 181 178 187 159 160 191 189 180 162 152 158 141 133 150 146 144 162 158 162 152 148 156 146 157 163 167 173 178 181 185 191 193 194 196 198 202 201 200 199 201 202 201 203 204 205 204 203 204 205 204 203 203 205 207 207 205 202 201 197 193 192 184 172 157 146 148 144 143 141 145 150 152 155 153 152 153 152 153 155 154 154 157 154 134 113 96 86 84 88 123 190
140 99 98 211 212 201 196 177 180 164 167 179 182 182 177 177 169 153 143 155 148 138 142 154 167 163 156 158 156 161 167 171 176 180 184 188 193 198 200 200 202 205 205 204 202 203 204 204 204 205 208 208 207 207 209 210 209 208 210 213 213 212 212 212 208 204 203 199 196 194 196 185 168 165 161 159 163 164 165 164 163 163 165 166 168 169 168 171 172 154 96 50 40 38 34 24 347
155 93 105 235 217 192 32 102 173 218 182 168 173 179 183 192 178 171 172 167 165 171 169 168 180 179 170 165 167 168 170 176 180 183 188 192 198 204 206 207 210 211 211 211 209 206 207 207 207 207 209 211 211 210 212 215 215 213 213 216 217 218 218 218 217 214 211 211 209 210 215 207 196 192 182 176 175 178 179 176 175 175 177 180 184 187 185 188 194 203 203 255 14 18 14 9 348
143 111 164 217 192 154 47 65 92 204 176 167 168 168 190 202 187 190 169 149 225 217 199 205 207 193 179 173 176 176 177 180 185 188 192 196 202 208 213 216 220 221 218 216 214 213 211 210 210 210 211 212 213 214 216 217 218 218 216 217 219 221 222 223 223 221 218 219 220 221 222 218 220 212 197 192 187 188 193 192 190 188 190 192 196 201 203 204 204 205 206 212 234 281 312 315 282
89 88 215 169 157 146 117 88 99 168 170 163 159 159 187 186 189 202 178 162 230 225 217 227 226 208 194 185 183 183 185 187 190 193 196 202 207 211 216 219 222 223 222 221 219 219 217 215 214 214 214 214 215 217 219 220 221 222 220 219 221 223 224 226 227 226 225 225 226 228 227 225 228 216 203 201 197 196 200 205 206 205 206 208 209 211 214 213 207 204 204 209 226 242 248 247 234
104 274 281 136 165 157 147 135 131 175 171 154 158 169 173 167 195 212 201 208 225 222 221 226 231 225 211 198 191 189 191 193 196 198 201 205 210 214 217 219 223 224 226 226 225 224 223 220 218 218 218 218 218 218 220 222 223 225 224 223 225 227 228 228 230 230 230 230 230 232 231 231 229 220 213 211 208 206 207 212 216 217 219 220 221 222 222 219 214 211 210 217 229 245 258 266 253
120 186 255 109 136 137 141 145 131 167 170 157 159 168 171 173 195 215 218 226 222 206 181 189 220 222 215 207 202 201 200 200 202 204 206 210 214 218 220 223 226 227 229 229 229 229 228 226 222 221 222 223 223 221 221 223 225 226 227 226 227 229 232 231 232 234 234 233 232 232 233 232 229 226 226 224 220 217 216 219 221 222 224 225 228 229 227 223 221 220 221 225 232 245 266 284 282
108 155 198 128 110 131 133 156 145 149 159 153 158 165 177 188 205 238 235 230 218 214 201 183 200 211 215 215 214 210 207 207 208 209 209 213 217 219 221 224 226 228 230 231 231 232 232 230 227 225 225 226 225 224 225 226 227 227 228 229 228 229 233 232 232 235 237 237 234 232 232 232 231 231 230 230 229 226 224 224 225 226 226 227 230 232 231 228 226 228 228 231 238 248 266 283 287
168 146 164 150 125 137 131 161 161 154 163 159 175 181 174 196 249 265 248 238 224 220 219 218 216 211 211 215 219 216 212 211 211 212 214 215 215 218 221 224 227 229 231 233 234 234 234 232 231 230 230 229 228 227 228 229 230 230 231 232 231 231 234 232 230 233 237 239 238 235 234 234 234 236 236 235 233 233 232 230 230 231 231 231 233 234 232 231 231 234 235 236 242 249 264 277 282
157 133 131 126 128 148 139 159 157 156 178 183 196 222 262 191 144 262 255 241 222 220 220 225 227 223 215 212 216 218 217 215 215 216 216 215 216 220 221 223 228 231 232 233 233 235 235 234 233 233 232 232 231 231 232 233 234 234 235 235 235 235 236 234 230 231 235 239 241 240 238 237 237 237 237 239 237 235 237 235 233 234 236 236 236 235 233 231 234 236 236 237 242 248 261 271 274
142 128 100 57 75 157 176 156 157 156 159 189 180 175 298 94 147 249 255 243 222 220 218 223 225 225 222 216 214 216 219 218 219 219 218 221 224 226 226 227 230 231 232 233 233 233 234 234 234 234 233 233 232 234 235 236 237 238 238 238 238 238 238 237 234 232 233 237 242 243 242 241 239 238 238 240 240 237 239 239 236 237 240 240 240 238 233 230 233 236 235 234 236 242 254 265 266
134 122 97 358 12 16 234 166 171 178 154 185 142 20 290 242 222 242 248 239 239 224 219 222 223 226 225 223 221 220 223 222 220 224 229 235 239 238 236 238 237 236 237 236 235 234 234 234 234 234 234 233 234 235 236 238 239 240 240 240 240 241 239 240 239 236 235 235 240 244 245 243 241 241 240 240 240 239 240 241 240 240 240 240 242 241 237 233 234 237 238 237 239 243 248 256 259
131 100 99 23 13 351 265 160 173 182 171 190 142 273 273 257 241 242 247 255 254 232 223 221 223 227 227 226 227 228 230 228 229 235 240 242 243 243 244 244 241 241 242 239 237 236 236 234 234 234 234 234 235 236 237 238 239 240 241 241 242 243 242 243 243 241 238 236 238 242 245 246 244 243 242 240 239 239 239 240 242 242 241 240 240 241 239 237 236 239 241 241 243 247 249 251 253
122 70 66 60 85 285 293 131 152 154 211 210 131 197 258 276 271 265 264 257 247 234 229 224 224 227 228 229 230 235 237 236 241 245 246 247 246 245 247 245 242 241 241 239 239 239 238 236 235 235 234 235 236 237 238 239 239 240 242 243 244 245 245 245 246 244 241 239 238 239 242 245 246 246 246 245 244 243 240 238 240 243 245 244 242 241 241 240 238 240 243 244 245 248 251 250 248
49 95 319 345 146 258 304 219 167 162 211 205 120 210 265 280 289 331 321 251 228 228 232 227 227 228 230 233 236 242 246 245 248 250 249 249 246 246 246 245 243 242 241 241 242 241 239 238 237 237 237 237 238 239 240 240 239 240 241 243 245 246 247 247 248 248 246 244 241 239 240 243 245 246 246 247 249 250 247 242 242 244 247 247 246 244 243 242 239 239 241 245 246 248 253 251 246
3 100 200 269 156 251 309 277 206 181 171 225 136 211 272 280 259 12 25 255 211 225 236 234 232 234 235 238 242 247 251 250 250 250 248 245 244 244 243 243 243 243 243 244 244 243 243 241 238 239 239 240 241 241 241 240 240 240 241 242 244 246 246 247 248 248 249 248 245 242 241 242 244 244 245 246 246 249 252 250 245 245 248 250 250 250 248 247 243 238 239 242 244 245 252 253 247
303 32 173 230 177 177 272 280 296 67 140 245 81 207 253 264 263 283 309 270 234 237 244 244 239 240 243 245 248 250 252 253 252 253 252 249 248 245 242 243 244 244 244 244 244 245 247 247 244 242 242 242 243 243 242 241 241 241 242 242 243 245 246 248 248 247 247 248 247 246 243 242 244 244 245 246 245 246 250 252 249 246 248 251 251 252 252 253 250 242 237 239 242 242 246 250 249
194 191 167 239 208 183 231 238 277 38 84 247 212 240 258 268 278 277 272 270 265 257 257 259 257 255 255 254 254 254 255 256 258 260 260 257 255 251 249 249 248 248 246 243 243 244 245 247 247 246 244 244 244 244 243 242 242 241 241 241 242 242 243 245 247 248 247 247 247 247 246 245 244 245 245 244 243 243 246 249 251 248 248 250 250 250 250 251 252 246 239 238 240 240 242 246 248
171 175 146 158 182 230 241 244 261 155 121 256 233 235 260 271 281 278 273 273 268 262 262 263 263 262 261 260 259 259 258 259 262 264 262 258 256 256 257 258 257 254 250 246 243 242 243 243 245 245 244 243 243 243 241 239 239 239 238 238 240 241 242 243 245 248 249 249 249 248 248 248 246 246 246 245 242 240 242 244 247 247 247 248 248 248 249 249 249 250 245 240 239 239 239 240 244
137 125 107 141 162 236 255 266 284 150 153 256 244 245 262 263 268 270 273 278 271 260 257 258 260 261 261 261 261 261 260 261 264 265 262 258 256 256 257 259 257 254 252 248 244 242 242 242 242 243 243 242 241 241 241 240 239 238 239 241 243 244 244 244 246 247 249 251 252 251 250 249 248 245 244 245 244 241 241 242 244 245 244 245 246 248 252 251 250 253 250 244 241 239 239 238 239
96 117 113 90 147 228 253 254 286 20 154 266 321 307 271 258 262 269 270 270 258 251 247 251 257 259 261 261 261 262 261 263 265 264 263 261 259 258 258 257 254 252 252 250 249 246 244 243 243 243 243 243 242 242 242 242 242 243 246 249 251 250 249 250 251 252 253 254 254 254 253 251 250 246 242 242 243 243 241 240 242 242 242 245 245 248 252 252 251 251 244 240 241 240 241 241 237
83 112 121 107 202 252 296 300 310 9 121 273 344 332 281 266 258 263 262 252 254 257 251 252 257 259 261 262 263 264 265 267 267 265 264 264 263 262 260 258 255 253 253 252 252 250 248 246 245 244 243 243 244 244 244 244 246 247 248 251 252 252 253 253 254 255 255 255 256 256 255 254 253 251 247 243 242 245 244 241 239 238 242 245 245 246 247 247 249 248 239 236 244 242 239 240 239
88 107 127 194 246 172 277 294 316 359 50 286 334 318 284 285 282 267 263 255 262 268 261 258 259 259 263 265 266 267 268 270 271 270 269 267 266 265 262 260 257 255 252 250 249 249 249 249 248 246 243 243 243 243 245 246 247 247 247 249 250 251 252 252 252 252 252 253 255 256 256 256 255 254 252 248 245 244 244 244 242 240 241 244 245 245 245 244 245 246 239 234 245 245 237 237 238
16 128 141 177 206 170 200 281 333 357 11 20 10 330 293 311 331 291 281 267 265 274 272 263 260 261 265 267 266 265 266 270 274 275 275 271 268 266 265 263 260 257 254 252 251 251 253 253 253 250 246 244 242 242 244 246 247 247 246 246 246 247 248 248 248 249 250 250 252 254 255 255 256 255 253 252 251 249 245 243 243 244 246 248 246 244 245 244 243 249 244 236 248 250 239 239 241
314 224 173 172 167 157 174 4 40 37 351 340 31 9 291 312 320 281 301 326 294 294 292 278 280 280 271 265 264 264 266 270 274 279 281 278 273 268 263 260 257 256 256 255 255 255 256 257 256 254 251 246 244 243 244 246 247 248 247 246 246 246 247 247 249 251 252 253 254 255 255 256 256 256 255 252 252 253 252 249 245 245 248 250 251 248 246 243 243 249 243 240 253 251 238 240 245
281 241 175 152 130 127 141 78 61 83 258 300 58 102 266 302 292 264 294 324 311 312 306 293 292 289 279 271 270 272 275 276 277 281 285 283 278 271 264 258 254 255 257 256 255 255 256 257 257 256 255 252 250 249 248 249 250 251 251 251 251 251 251 253 255 256 256 257 258 258 257 258 257 256 257 255 253 252 252 253 251 249 248 248 249 247 244 244 248 249 241 244 256 249 238 245 251
233 234 135 126 121 136 149 106 96 212 242 322 17 113 240 293 265 264 307 323 314 312 303 292 289 294 300 292 279 278 281 284 286 286 285 281 276 273 271 266 258 255 256 255 254 255 256 257 258 258 257 255 254 254 254 253 254 255 255 255 255 255 256 259 259 259 259 259 259 259 260 259 258 258 258 257 257 254 252 252 252 251 250 248 248 245 245 248 251 249 243 247 254 246 242 249 254
243 206 126 130 132 134 122 98 98 11 19 314 315 122 196 276 271 297 337 320 302 296 285 286 298 317 336 335 308 297 297 298 301 294 287 288 283 277 275 269 260 255 253 253 253 255 256 257 258 257 255 254 254 254 255 255 256 257 257 257 257 258 260 262 262 261 261 260 260 260 259 259 259 258 258 257 257 256 255 253 252 250 247 246 247 248 250 251 249 246 243 248 251 244 241 248 254
179 137 96 78 72 80 78 89 99 39 23 254 257 195 190 268 285 311 341 289 267 273 276 288 320 351 16 40 64 66 40 12 342 324 320 324 315 296 282 271 262 256 252 252 252 252 252 253 254 253 253 253 253 253 254 255 255 255 256 256 258 260 261 262 263 262 261 260 260 260 259 259 259 258 258 258 257 257 256 255 254 253 249 246 245 246 250 249 246 244 242 249 254 245 241 252 258
132 100 62 47 31 35 42 57 83 61 297 253 243 224 168 270 281 256 217 226 219 256 311 315 347 20 46 60 66 63 45 29 3 346 341 341 334 314 295 275 258 256 257 257 257 255 254 254 253 253 253 253 253 253 253 253 253 254 255 256 258 260 262 262 262 262 262 261 261 262 262 262 262 261 261 260 259 258 257 257 256 255 253 249 245 245 248 247 245 244 244 251 253 245 247 259 258
107 83 72 66 355 9 21 2 42 109 256 262 256 224 150 219 262 251 244 260 232 199 286 314 342 14 46 57 54 44 29 16 358 346 340 341 336 322 306 280 255 253 257 259 262 260 258 257 258 258 257 255 254 253 253 253 253 253 255 256 258 259 261 261 261 262 263 263 264 266 266 264 264 264 263 262 261 260 259 258 258 256 254 248 244 245 247 247 246 243 245 249 245 242 251 257 253
78 89 96 89 343 4 355 310 330 221 245 270 274 219 187 227 251 255 257 265 236 194 232 300 334 13 47 44 33 26 20 9 2 359 351 345 339 326 309 284 271 260 245 244 256 266 274 276 274 273 268 262 259 257 256 256 255 254 254 255 257 258 259 259 261 263 264 265 267 267 267 267 266 265 265 265 265 265 264 263 262 260 257 250 245 245 246 247 247 243 244 245 243 247 254 253 251
133 137 132 132 132 131 263 269 280 263 259 283 284 258 265 274 268 247 249 262 255 216 252 309 337 46 43 28 27 28 23 15 12 12 8 359 347 330 302 281 275 267 260 262 272 282 292 294 290 288 281 272 266 263 261 260 259 256 253 252 254 254 255 257 259 262 263 266 267 268 269 269 270 270 271 272 272 271 269 268 267 264 260 251 243 244 247 247 248 247 246 247 248 251 253 251 254
179 155 136 151 158 162 210 219 214 247 274 295 293 258 213 207 298 250 247 271 281 259 261 287 277 195 80 38 35 29 20 22 30 35 34 27 12 346 304 287 281 278 278 280 286 289 292 297 297 294 289 279 272 267 264 263 261 258 252 248 248 248 250 253 256 259 262 264 266 268 271 271 274 276 276 277 275 273 270 268 266 264 261 254 243 240 243 247 248 245 246 252 253 250 250 253 257
224 124 111 172 188 149 138 190 180 180 287 295 260 234 217 204 279 278 260 275 286 279 290 301 271 218 147 63 39 33 31 41 49 48 44 39 31 15 346 318 296 288 287 287 291 293 294 297 295 290 287 280 272 267 264 261 258 255 250 244 241 242 244 247 252 257 259 263 266 269 272 273 276 278 279 279 276 274 272 268 265 262 260 257 249 240 237 242 246 243 248 256 252 248 253 256 255
179 139 183 219 176 119 109 237 43 80 247 270 219 248 291 326 296 299 319 295 286 300 9 12 17 186 136 65 41 40 55 61 53 44 40 37 32 22 11 357 334 313 304 299 300 300 299 299 293 283 279 276 271 268 263 257 252 248 243 239 236 236 240 243 249 257 261 264 268 272 275 276 278 280 280 280 279 276 273 270 267 263 260 258 255 245 237 236 240 243 249 253 247 247 255 256 253
129 181 212 200 95 83 106 204 353 36 250 274 249 239 280 314 277 309 9 339 293 329 46 66 85 104 99 66 48 50 69 64 41 31 27 23 19 15 11 5 354 339 330 323 315 309 306 301 293 284 278 276 272 267 260 254 250 245 239 236 235 236 241 246 249 254 258 262 267 272 275 277 278 280 279 278 279 279 276 274 271 267 264 260 258 252 243 239 241 246 249 250 250 251 255 255 253
134 178 172 119 127 192 111 158 196 174 246 279 288 269 252 209 226 278 321 285 280 352 79 97 84 80 75 61 55 56 58 42 25 20 17 14 10 4 1 0 356 346 340 341 332 322 318 309 301 293 285 281 274 265 256 250 247 244 239 236 236 238 242 246 247 250 253 257 263 268 270 272 274 275 276 277 277 279 279 278 275 272 269 265 260 255 247 241 242 245 248 249 250 251 254 255 256
78 105 115 97 138 167 165 158 162 177 209 256 299 315 265 224 207 210 230 249 251 133 125 145 95 73 70 59 56 51 40 27 18 16 14 13 12 2 354 353 351 342 334 339 340 338 338 332 322 310 298 288 278 268 257 249 246 243 241 237 235 237 240 244 246 248 250 254 259 264 267 270 272 272 274 276 277 278 279 279 278 275 272 269 266 260 250 241 239 242 246 249 249 250 252 256 258
146 160 172 172 114 115 165 173 124 143 165 205 279 293 266 249 202 184 204 234 224 152 152 174 98 79 71 52 43 34 28 24 21 20 17 14 11 3 354 350 345 335 324 322 327 333 337 338 339 331 315 299 285 273 261 252 249 246 244 240 238 238 240 243 246 248 250 253 257 262 267 270 271 272 274 277 278 279 278 279 278 276 273 269 268 265 256 244 239 241 245 248 250 251 253 257 257
163 183 194 183 159 124 145 232 262 125 164 181 194 274 268 237 201 191 185 190 178 151 149 154 105 82 54 32 31 33 33 33 25 16 8 1 357 354 348 340 333 325 318 311 308 318 328 332 335 333 326 316 300 281 265 257 254 251 249 248 245 244 244 245 247 249 250 252 255 261 266 269 271 274 275 276 278 279 278 278 277 276 274 269 267 266 259 246 239 240 243 247 249 250 254 256 253